Regional Weather Roundup
Issued by NWS Portland, ME

Current Version | Previous Version | Text Only | Print | Product List | Glossary Off
Versions: 1 2 3 4 5 6 7 8 9 10 11 12 13 14 15 16 17 18 19 20 21 22 23 24 25 26 27 28 29 30 31 32 33 34 35 36 37 38 39 40 41 42 43 44 45 46 47 48 49 50
000 ASUS41 KGYX 262105 RWRGYX WEATHER ROUNDUP FOR MAINE AND NEW HAMPSHIRE NATIONAL WEATHER SERVICE GRAY ME 500 PM EDT WED JUL 26 2017 MEZ002-005-006-010-012-015-018-020-021-024-026-027-029-262200- MAINE CITY SKY/WX TMP DP RH WIND PRES REMARKS PORTLAND FAIR 75 55 49 S9 30.14F SANFORD N/A 78 52 40 VRB7 30.14F WISCASSET FAIR 75 51 43 S9 30.15F ROCKLAND FAIR 69 58 67 S9 30.14F FRYEBURG FAIR 79 54 41 VRB7 30.13F LEWISTONAUBURN FAIR 78 54 43 S12 30.13S AUGUSTA FAIR 78 50 37 SW8 30.12S WATERVILLE FAIR 80 50 34 VRB6 30.09S BANGOR FAIR 80 51 36 S15 30.11R GREENVILLE N/A N/A N/A N/A VRB6 30.10F MILLINOCKET FAIR 80 49 33 VRB3 30.09F HOULTON FAIR 82 48 30 SW9 30.05F PRESQUE ISLE FAIR 81 49 32 SW8 30.05F FRENCHVILLE FAIR 78 46 32 SW8 30.04F CARIBOU FAIR 80 50 34 S5 30.04F $$ NHZ002-005-008-009-011-012-014-262200- NEW HAMPSHIRE CITY SKY/WX TMP DP RH WIND PRES REMARKS PORTSMOUTH MOSUNNY 77 53 42 SE12 30.12F ROCHESTER FAIR 78 52 40 S9 30.13F NASHUA PTSUNNY 80 55 42 SE7 30.13F MANCHESTER PTSUNNY 81 50 33 S8 30.11F CONCORD PTSUNNY 79 53 40 VRB5 30.13F LACONIA FAIR 78 53 41 SW6 30.13F PLYMOUTH CLOUDY 76 56 51 CALM 30.12F BERLIN CLOUDY 77 54 44 VRB5 30.12F WHITEFIELD FAIR 77 55 46 W9 30.13F JAFFREY PTSUNNY 76 55 48 S8 30.17F KEENE FAIR 77 55 46 SW6 30.14F LEBANON CLOUDY 78 54 43 S7 30.12F MT WASHINGTON PTSUNNY 54 48 82 W10 N/A $$ VTZ005-007-008-262200- VERMONT CITY SKY/WX TMP DP RH WIND PRES REMARKS ST JOHNSBURY N/A 76 53 44 MISG 30.10F MONTPELIER FAIR 74 59 59 SW6 30.16F BURLINGTON PTSUNNY 77 56 48 S15G22 30.09F $$ MAZ007-012-024-CTZ003-RIZ002-NYZ038-NYZ072-262200- SOUTHERN NEW ENGLAND AND NY CITY SKY/WX TMP DP RH WIND PRES REMARKS BOSTON FAIR 72 59 63 SE15 30.14F WORCESTER FAIR 74 51 44 S3 30.17F NANTUCKET FAIR 68 59 73 SE7 30.17F PROVIDENCE FAIR 77 59 53 SE13 30.15F HARTFORD PTSUNNY 79 55 43 SW7 30.14F ALBANY PTSUNNY 77 58 51 SW10 30.13F NEW YORK CITY PTSUNNY 76 57 51 S9 30.17S $$ ANZ081-ANZ082-ANZ150-NHZ014-MEZ023>029-262200- COASTAL MARINE OBSERVATIONS STATION/POSITION TIME TEMP WIND PRES WAVE AIR SEA DIR/SP/G HT/PER (UTC) (F) (DEG/KT/KT) (MB) (FT/S) MOUNT DESERT ROC 2100 65 1020.8F MATINICUS ROCK 2000 63 170/ 9/ 9 1021.0F ISLE OF SHOALS 2000 67 150/ 11/ 12 1020.9F JEFFREYS LEDGE 2006 67 N/A 2/ 8 CASHES LEDGE BUO 1950 69 67 1021.5 2/ 8 GEORGES BANK BUO 1950 62 60 1020.4 6/ 9 $$ .............KEY.............. WCI - WIND CHILL TC - TEMPERATURE IN CELSIUS VSB - VISIBILITY IN MILES HX - HEAT INDEX FAIR- INDICATES FEW OR NO CLOUDS BELOW 12,000 FT, WITH NO SIGNIFICANT WEATHER AND/OR OBSTRUCTIONS TO VISIBILITY.

USA.gov is the U.S. government's official web portal to all federal, state and local government web resources and services.